Regional Weather Roundup
Issued by NWS

Home | Current Version | Previous Version | Graphics & Text | Print | Product List | Glossary On
Versions: 1 2 3 4 5 6 7 8 9 10 11 12 13 14 15 16 17 18 19 20 21 22 23 24 25 26 27 28 29 30 31 32 33 34 35 36 37 38 39 40 41 42 43 44 45
000
ASUS45 KBOU 011607
RWRCO

WEATHER ROUNDUP FOR COLORADO
NATIONAL WEATHER SERVICE DENVER/BOULDER CO
1000 AM MDT WED OCT 01 2014

NOTE: "FAIR" INDICATES FEW OR NO CLOUDS BELOW 12000 FEET WITH NO
SIGNIFICANT WEATHER AND/OR OBSTRUCTIONS TO VISIBILITY.

COZ001>005-013-030-031-011700-
...NORTHWEST COLORADO...

CITY           SKY/WX    TMP DP  RH WIND       PRES   REMARKS
CRAIG          LGT RAIN  39  35  86 S17       30.00F
HAYDEN         CLOUDY    36  34  93 CALM      30.03R
MEEKER         LGT RAIN  38  35  89 N5        30.02R
MOUNT WERNER   NOT AVBL
STEAMBOAT SPGS CLOUDY    36  34  92 W7        30.02R
WALDEN         CLOUDY    37  34  87 NW5       30.00S
$$

COZ006>008-011-011700-
...WEST CENTRAL VALLEYS...

CITY           SKY/WX    TMP DP  RH WIND       PRES   REMARKS
GRAND JUNCTION CLOUDY    46  45  96 SE10      30.01S
MONTROSE       CLOUDY    45  41  86 NW13      30.06R
EAGLE          PTSUNNY   43  43 100 VRB5      30.01F
RIFLE          RAIN      43  41  93 W10       30.02R FOG
DELTA          LGT RAIN  48  43  82 W12G17    30.03R
NUCLA          CLOUDY    48  41  76 NW13G20   30.05R
$$

COZ017>023-064>068-011700-
...SOUTHWEST COLORADO...

CITY           SKY/WX    TMP DP  RH WIND       PRES   REMARKS
DURANGO        CLOUDY    45  40  82 NW3       30.03S
CORTEZ         SUNNY     56  40  55 CALM      29.99R
PAGOSA SPRINGS CLOUDY    43  39  86 CALM      30.07S
TELLURIDE      CLOUDY   N/A N/A N/A CALM      30.09R
WOLF CREEK PAS SNOW      28  28 100 SW18G29   30.19S VSB 1/4 WCI  16
$$

COZ009-010-012-014-032>034-037-058>063-011700-
...CENTRAL COLORADO...

CITY           SKY/WX    TMP DP  RH WIND       PRES   REMARKS
ASPEN          LGT RAIN  38  35  89 NW7       30.02S
BUENA VISTA    CLOUDY    47  31  55 SE3       30.02S
COPPER MTN     CLOUDY    36  27  69 SE18      30.12S
BERTHOUD PASS    N/A     27  23  86 SE8       30.16S WCI  18
COTTONWOOD PAS PTSUNNY   45  30  57 CALM      30.07S
GUNNISON       PTSUNNY   39  34  81 CALM      30.06S
KREMMLING      CLOUDY    41  36  81 CALM      30.00S
LEADVILLE      CLOUDY    35  27  72 CALM      30.05S
MONARCH PASS   SNOW      30  28  93 MISG      30.24F VSB<1/4
SALIDA         PTSUNNY   51  33  50 NE3       30.08F
SUNLIGHT       SNOW      32  32 100 CALM      30.11S VSB 1/2
WILKERSON PASS NOT AVBL
$$

COZ069>075-011700-
...SAN LUIS VALLEY/SANGRE DE CRISTO MOUNTAINS...

CITY           SKY/WX    TMP DP  RH WIND       PRES   REMARKS
ALAMOSA        MOSUNNY   47  37  68 VRB3      30.04F
LA VETA PASS   SUNNY     45  30  57 SW5       30.12S
SAGUACHE       PTSUNNY   43  32  65 CALM      30.07F
$$

COZ035-036-038>040-011700-
...NORTHERN COLORADO FRONT RANGE...

CITY           SKY/WX    TMP DP  RH WIND       PRES   REMARKS
DENVER INTL AP PTSUNNY   57  38  48 CALM      29.90S
DMNS CITY PARK   N/A     58  38  48 S2        29.90S
AURORA         PTSUNNY   57  34  41 VRB5      29.92S
FRONT RANGE AP PTSUNNY   63  37  39 S3        29.91F
ERIE MUNI ARPT PTSUNNY   56  39  53 SE3       29.89F
BOULDER MUN AP PTSUNNY   57  37  47 CALM      29.89S
CENTENNIAL     CLOUDY    57  34  41 W8        29.91F
BROOMFIELD     PTSUNNY   55  39  54 VRB3      29.91S
FORT COLLINS   SUNNY     54  41  62 NE6       29.91S
LONGMONT       SUNNY     61  44  52 E5        29.90S
$$

COZ041-046-047-076>085-087-088-011700-
...PIKES PEAK/PALMER DIVIDE AND SOUTHERN FOOTHILLS...

CITY           SKY/WX    TMP DP  RH WIND       PRES   REMARKS
COLO. SPRINGS  PTSUNNY   58  34  40 S13       29.96S
A. F. ACADEMY  PTSUNNY   55  31  39 SE9       29.96S
ELLICOTT       NOT AVBL
FALCON         PTSUNNY   57  31  36 S8        29.98S
FORT CARSON    PTSUNNY   57  36  44 SE10      29.94S
LIMON          MOSUNNY   59  39  47 NE15      29.92F
MONUMENT HILL  PTSUNNY   55  32  41 SE15      29.95F
TRINIDAD       SUNNY     60  35  39 SE5       29.95S
$$

COZ042>045-048>051-090-091-011700-
...NORTHEAST COLORADO...

CITY           SKY/WX    TMP DP  RH WIND       PRES   REMARKS
GREELEY ARPT   SUNNY     54  43  66 E7        29.90S
AKRON          MOSUNNY   58  42  55 N12       29.91R
BURLINGTON     MOSUNNY   63  41  44 NE9       29.89R
WRAY           MOSUNNY   65  45  46 NW8       29.87R
STERLING       MOSUNNY   63  46  55 N8        29.88S
HOLYOKE        MOSUNNY   63  46  55 N7        29.87R
FORT MORGAN    CLOUDY    59  39  48 CALM      29.91S
$$

COZ086-089-092>099-011700-
...SOUTHEAST COLORADO...

CITY           SKY/WX    TMP DP  RH WIND       PRES   REMARKS
PUEBLO         MOSUNNY   59  36  42 CALM      29.91S
LA JUNTA       SUNNY     66  38  35 NE7       29.89F
LAMAR          SUNNY     63  46  54 NW5       29.86S
SPRINGFIELD      N/A     66  40  38 N14       29.89R
$$



USA.gov is the U.S. government's official web portal to all federal, state and local government web resources and services.